Theta_e
303 304 304 304 305 307 309 313 317 321 323 324 333 335 333 335 334 336 341 341 339 337 339 336 337 343 342 338 338 338 336 333 327 323 319 319 316 319 318 315 319 313 315
302 303 303 304 304 305 307 311 316 318 323 325 333 335 335 332 333 331 339 341 340 336 337 337 335 342 340 338 338 336 336 334 326 319 318 315 313 317 316 313 316 315 313
302 302 303 303 303 303 305 308 312 317 323 325 332 329 330 333 330 329 336 339 339 340 337 341 337 337 340 338 338 332 334 329 326 321 317 316 314 318 313 313 313 310 313
301 301 301 302 303 302 304 306 310 316 320 326 330 332 330 329 332 333 331 339 341 342 340 339 343 339 340 338 334 329 327 324 323 320 317 315 315 314 315 312 309 309 309
299 299 300 301 303 303 304 306 309 314 318 326 329 335 335 334 331 324 325 337 342 343 343 340 343 341 335 337 331 327 324 322 321 318 317 315 313 314 313 312 308 305 305
299 299 300 301 302 303 303 304 308 314 320 325 329 332 330 333 313 317 324 331 341 338 337 341 341 331 330 325 323 322 325 322 320 318 317 315 314 315 314 311 308 304 301
298 299 300 300 301 302 302 304 306 310 314 323 328 329 330 331 310 311 316 328 329 329 334 338 338 340 331 330 319 319 317 317 322 323 319 318 315 316 316 314 311 307 305
297 298 299 299 300 300 300 301 304 307 313 321 326 327 328 330 310 310 313 330 329 327 329 335 340 335 335 331 328 326 325 323 322 325 324 321 318 318 318 316 314 311 313
296 297 298 298 299 300 299 299 303 306 311 315 325 327 325 324 308 309 312 328 330 330 330 333 338 335 314 313 330 324 319 315 310 311 312 309 307 308 315 315 313 312 311
296 296 298 298 299 299 300 299 302 307 311 315 323 329 322 325 304 302 316 327 325 325 328 332 316 328 308 311 327 323 318 314 315 313 311 308 310 310 309 316 315 313 308
297 297 298 299 300 301 301 300 303 308 312 314 321 327 325 320 308 301 307 323 323 323 328 331 327 306 307 308 316 326 320 316 312 314 314 314 315 315 313 315 318 316 309
296 297 298 300 302 306 302 302 307 309 312 315 321 325 322 318 310 302 305 305 314 324 324 333 323 305 305 305 314 304 304 311 315 314 313 312 312 314 314 315 316 313 313
296 297 298 300 303 308 301 306 308 312 315 318 322 323 320 321 316 306 300 304 305 322 332 321 307 303 303 303 302 303 306 315 313 312 311 311 313 314 313 311 309 310 308
295 297 297 299 302 308 311 311 309 306 311 314 317 321 320 319 316 314 314 315 307 312 307 309 307 308 308 307 307 310 315 315 313 312 312 314 315 311 309 308 307 307 303
296 296 296 298 301 304 305 299 305 299 296 303 303 315 318 316 315 309 316 323 324 313 308 310 313 311 308 308 311 312 312 313 313 313 313 312 313 311 308 307 307 303 301
296 295 295 298 300 301 302 303 295 294 294 293 295 296 311 307 301 302 300 303 300 301 313 311 312 311 308 308 310 311 312 311 312 313 312 312 312 310 307 306 306 304 300
295 295 295 298 297 297 298 298 298 300 295 293 294 293 292 293 294 299 299 301 300 305 316 312 311 310 309 309 311 311 311 313 314 313 312 312 313 311 305 305 305 304 301
296 294 296 296 296 296 296 295 295 295 295 297 298 294 292 291 291 293 295 301 311 310 313 311 310 310 309 309 311 311 312 311 312 312 312 312 312 308 306 305 306 303 302
295 293 294 295 295 294 294 294 294 293 294 295 296 296 295 293 292 293 297 310 309 309 310 310 310 310 310 310 311 311 311 311 311 311 311 310 310 309 305 305 305 297 297
295 293 292 292 292 292 292 291 292 292 292 293 293 292 295 298 298 299 304 307 307 308 309 308 309 309 310 310 310 310 310 308 309 310 310 310 310 309 306 304 304 301 300
294 294 289 291 290 290 290 290 290 290 289 290 292 292 287 297 298 299 302 304 305 306 307 308 308 309 310 310 310 310 310 310 309 308 308 309 309 309 309 305 304 303 298
295 294 293 292 292 290 289 289 289 289 288 288 289 291 288 295 295 296 298 301 304 305 306 307 307 308 309 310 311 310 309 307 307 308 308 309 309 310 308 305 303 299 296
295 294 293 292 292 289 289 289 288 288 288 288 288 289 291 292 293 294 296 297 301 302 304 305 306 307 308 310 311 311 308 306 307 308 308 308 307 305 305 300 299 298 297
295 295 294 293 292 291 290 289 289 288 288 288 288 288 290 291 291 292 294 296 298 299 301 302 303 304 304 305 306 307 308 308 308 309 309 307 304 300 301 299 298 298 297
293 294 293 293 292 291 291 291 290 289 288 288 288 288 289 291 291 292 292 294 294 294 295 297 300 303 303 304 304 303 293 293 304 299 305 304 303 302 301 299 298 297 297
296 295 294 292 292 293 292 290 291 290 289 288 288 288 289 290 291 291 292 293 293 294 294 294 295 296 296 296 295 289 289 291 297 294 303 303 302 300 300 299 298 297 296
Wind_Speed
13 14 15 14 16 17 16 18 18 18 18 18 15 15 18 16 19 13 19 20 19 18 16 17 13 7 6 8 9 12 11 6 8 4 4 9 8 12 9 6 9 8 8
15 14 15 15 16 17 17 18 19 19 19 14 16 14 17 16 19 19 18 21 22 19 20 17 17 9 8 7 8 13 12 8 12 15 10 6 6 8 8 10 8 7 8
16 14 15 16 17 16 19 19 20 19 18 12 14 13 13 18 14 15 15 16 22 22 20 18 18 16 10 6 4 7 10 11 13 13 11 4 4 8 8 6 8 8 6
13 14 15 16 17 17 18 19 21 17 18 12 14 15 19 16 11 9 18 24 24 21 20 22 16 17 15 9 7 10 13 13 13 11 11 9 9 4 5 9 6 5 8
17 16 15 16 17 17 18 18 21 20 15 11 13 10 12 11 10 13 7 33 27 21 19 17 13 15 15 13 11 12 15 12 12 12 10 9 8 10 11 7 7 5 3
15 15 16 16 17 16 18 17 20 19 14 11 11 11 9 8 16 16 11 14 22 16 14 13 13 13 15 18 18 22 20 17 13 11 10 13 14 12 8 11 10 6 4
15 15 15 15 17 15 18 17 18 20 13 13 10 7 11 12 20 17 14 10 10 9 7 9 8 8 12 11 19 20 19 23 27 17 18 16 15 17 15 14 13 9 4
15 15 15 15 16 17 17 17 17 15 15 14 8 9 9 10 21 24 28 15 9 9 10 8 11 10 12 15 17 14 14 13 16 12 16 16 12 16 16 13 13 9 4
16 16 17 16 17 17 17 17 16 14 14 13 11 8 11 9 19 23 19 12 21 13 6 6 8 9 16 21 16 14 10 4 6 13 15 14 17 14 14 11 9 10 5
17 18 18 18 16 16 17 16 15 13 15 11 13 10 12 11 12 10 9 7 7 6 3 2 10 12 19 23 18 17 14 10 13 13 10 11 14 13 16 11 10 11 5
17 18 18 18 17 17 16 13 13 13 13 14 14 9 12 7 10 13 12 5 4 3 5 3 6 20 20 19 19 15 16 13 12 13 11 9 10 10 7 5 7 9 6
17 18 18 17 14 12 8 10 11 11 15 15 14 7 8 8 11 15 15 4 8 9 5 5 10 20 19 18 15 17 18 17 10 11 10 9 10 10 7 5 6 5 4
17 17 17 18 17 8 6 8 9 10 12 11 5 8 9 7 5 11 14 16 9 5 7 8 14 14 18 10 23 23 18 12 11 11 11 9 8 8 9 7 6 11 9
16 16 16 15 17 13 6 5 6 7 7 9 4 7 8 8 6 7 8 10 15 13 15 9 9 10 7 14 14 15 10 11 13 12 10 8 7 8 8 7 9 9 8
12 13 14 11 13 11 8 10 7 5 5 8 9 6 4 4 3 5 11 11 10 14 12 9 8 7 8 9 9 7 8 10 10 10 11 10 9 10 9 7 9 3 8
12 10 10 10 10 9 9 5 12 15 19 14 15 13 5 8 3 6 10 20 20 25 10 11 10 10 11 11 11 10 9 11 10 11 12 12 11 10 10 8 8 9 10
11 12 9 9 10 9 9 9 9 8 8 13 19 23 19 10 8 9 14 20 17 13 10 13 12 11 11 10 11 10 11 10 11 11 13 13 12 11 12 11 9 9 9
10 15 9 9 9 10 10 10 9 8 8 11 13 11 15 15 10 9 13 9 4 6 9 10 10 10 11 11 10 10 9 9 10 10 11 12 11 12 11 11 10 10 10
8 8 9 8 8 10 9 9 7 8 8 7 8 9 12 10 11 8 7 4 4 4 6 7 7 8 9 9 9 9 10 9 9 10 10 11 10 11 11 10 10 10 11
7 11 10 7 8 8 8 8 8 8 7 7 7 8 8 7 5 5 4 3 4 4 4 6 6 7 8 9 8 8 9 10 10 10 11 9 10 10 11 11 10 13 11
6 7 8 6 7 7 7 7 8 8 7 7 8 8 10 5 4 3 3 3 3 3 5 6 6 7 7 8 9 10 10 10 10 10 11 10 9 9 9 9 11 12 11
5 5 6 7 7 8 7 7 6 6 7 7 7 8 12 7 6 5 4 3 3 3 3 4 5 6 7 7 8 9 10 10 10 10 11 10 9 8 5 9 11 13 14
5 6 5 6 6 6 7 8 8 8 8 8 8 8 8 8 7 7 5 4 4 4 3 4 5 4 4 5 7 10 12 12 11 13 13 12 9 10 6 10 12 13 14
4 5 6 6 6 6 6 6 7 9 9 8 8 8 9 8 8 9 8 7 6 7 6 5 5 7 6 5 5 5 7 8 9 12 15 11 9 8 10 10 11 15 14
4 5 5 5 6 6 8 6 7 7 8 8 8 8 8 9 10 10 10 8 8 8 9 8 6 8 9 11 10 10 10 10 11 11 11 13 12 11 9 10 10 10 13
3 4 4 4 4 5 8 10 8 7 7 7 7 8 9 10 10 10 10 10 9 10 11 9 11 15 15 13 14 11 11 12 13 13 11 10 10 8 7 9 14 9 10
Wind_Direction
318 315 311 310 307 300 294 294 287 287 272 278 246 209 200 192 192 223 210 187 191 193 202 206 208 182 182 190 166 172 176 162 140 79 100 148 139 146 140 127 138 128 137
314 312 310 303 300 298 295 296 294 290 273 268 266 196 199 183 195 205 224 191 188 193 199 201 207 196 187 180 162 172 179 156 134 136 137 147 140 142 137 137 137 135 138
315 309 307 303 301 299 297 295 292 288 279 278 276 186 188 195 187 210 224 220 200 196 194 197 200 199 196 178 140 123 142 134 143 142 142 140 116 151 140 136 129 129 134
316 307 304 301 300 299 295 294 293 289 291 285 284 199 197 206 167 199 226 227 201 197 191 196 190 194 190 167 132 127 131 133 139 135 137 143 151 145 130 141 128 134 137
314 306 303 300 296 297 297 298 298 293 287 271 282 207 204 226 179 164 254 214 196 186 186 189 183 183 171 168 145 143 138 136 141 142 140 144 165 161 165 151 137 124 148
305 302 304 300 303 301 299 302 303 301 305 290 287 194 169 179 165 162 203 273 166 172 168 169 181 172 169 157 148 148 151 146 149 150 157 162 171 166 149 156 149 144 170
304 305 304 305 298 301 301 302 301 305 308 284 282 218 197 197 165 165 160 241 138 157 140 165 160 178 167 155 152 151 160 158 157 165 165 175 166 173 158 163 162 162 151
307 307 304 303 302 298 297 296 295 298 303 301 270 205 205 198 177 172 178 176 178 191 162 156 182 166 163 153 150 153 165 165 163 169 175 168 163 164 174 171 159 145 91
311 312 309 303 297 293 290 290 290 295 302 301 285 211 198 197 194 185 182 206 172 183 156 155 173 163 159 142 151 152 138 124 104 120 123 131 135 147 150 139 155 159 155
317 311 306 301 293 285 280 282 284 283 286 291 286 225 198 202 171 87 146 176 193 133 115 196 178 160 160 151 157 158 150 160 137 121 112 114 139 142 144 162 158 166 151
316 312 307 304 295 281 270 273 277 283 289 288 282 215 187 153 95 121 159 139 132 126 130 197 164 151 166 165 156 166 161 144 126 122 123 133 136 148 139 143 162 160 152
321 314 314 309 305 295 264 277 290 291 294 283 283 191 156 133 131 129 133 140 153 183 166 186 172 163 163 153 140 132 134 127 128 128 140 145 152 162 156 141 143 140 169
320 322 323 322 329 309 251 282 285 280 284 278 227 172 139 131 109 97 129 118 167 132 190 149 141 164 136 120 132 138 133 134 138 144 149 151 158 141 122 106 93 98 69
321 332 331 336 337 346 347 336 351 16 337 344 2 136 125 148 152 162 125 103 104 87 60 111 138 139 111 126 133 138 143 149 155 149 144 132 125 126 131 127 126 115 102
326 336 335 333 342 349 20 7 20 96 21 337 2 15 115 126 212 267 129 118 126 121 110 117 159 134 133 134 140 146 146 146 150 148 145 147 141 141 145 132 136 117 125
333 343 336 333 344 355 8 19 14 12 16 354 29 32 31 68 94 77 91 116 129 137 137 160 174 168 154 151 155 154 162 163 161 155 149 151 147 157 150 136 134 133 133
341 340 339 347 345 357 20 15 9 5 337 22 29 26 16 16 64 115 119 135 144 153 165 164 167 159 155 157 159 163 168 169 161 159 152 159 156 155 151 144 142 139 140
350 349 343 353 356 357 13 27 19 8 7 356 5 14 21 11 35 101 111 119 112 119 148 159 153 150 155 157 165 168 158 154 162 148 149 156 157 146 153 155 150 153 147
356 357 351 355 4 6 2 12 26 15 18 8 351 352 2 14 34 39 13 92 132 130 138 143 148 149 154 153 157 160 153 158 139 137 148 149 145 145 154 155 156 146 147
357 2 5 2 1 4 7 9 12 18 14 9 11 356 334 348 21 359 21 73 100 116 134 131 150 150 149 150 152 147 148 141 140 138 148 158 150 149 165 166 160 149 156
2 8 4 6 17 10 14 10 7 4 7 4 355 1 341 358 12 12 12 32 90 124 133 141 153 141 144 151 155 155 154 154 152 152 150 150 146 157 157 161 159 155 133
356 14 6 8 12 18 18 17 20 21 11 10 1 357 354 11 18 12 15 33 49 83 123 124 137 141 143 145 149 149 156 153 148 147 150 142 135 157 163 167 154 147 144
6 25 22 29 28 21 22 18 21 22 22 14 11 12 14 17 16 14 13 19 37 47 65 88 92 101 121 147 158 163 158 158 159 149 148 152 149 144 174 157 156 147 150
19 28 32 33 36 34 32 33 29 24 25 26 19 14 16 24 28 25 22 20 37 41 40 52 72 100 103 95 97 109 126 134 147 148 142 142 137 136 135 149 152 150 152
18 39 31 38 51 46 47 42 42 35 27 22 23 20 20 32 34 32 29 29 37 45 45 46 48 82 94 105 101 98 100 105 113 112 119 118 120 116 131 131 141 151 147
40 61 54 41 48 49 55 51 45 39 35 30 27 25 27 32 35 36 34 38 43 45 52 52 66 76 76 73 83 82 94 98 101 99 108 112 117 118 121 128 137 149 141